• In Romania
  • List of Countries
  • For 7 days
  • Water Temperature
  • Satellite Maps
  • Weather Map
  • Weather Widgets
  • user-avatar
    Login

    Hourly Weather Fedyashevo

    Today, 20 July, Friday

    Time Temperature Precipitation Wind Pressure Humidity
    00:00 +18°C° 0.2 mm 2 mps 730 mmHg 98%
    01:00 +18°C° 0 mm 2 mps 730 mmHg 98%
    02:00 +18°C° 0 mm 2 mps 730 mmHg 98%
    03:00 +17°C° 0 mm 2 mps 730 mmHg 98%
    04:00 +18°C° 0 mm 2 mps 730 mmHg 98%
    05:00 +18°C° 0 mm 2 mps 730 mmHg 97%
    06:00 +18°C° 0 mm 2 mps 730 mmHg 97%
    07:00 +19°C° 0 mm 2 mps 730 mmHg 94%
    08:00 +20°C° 0 mm 2 mps 731 mmHg 91%
    09:00 +21°C° 0 mm 2 mps 731 mmHg 88%
    10:00 +23°C° 0.1 mm 2 mps 731 mmHg 83%
    11:00 +24°C° 0.1 mm 2 mps 731 mmHg 79%
    12:00 +25°C° 0.1 mm 2 mps 731 mmHg 75%
    13:00 +26°C° 0.6 mm 2 mps 731 mmHg 73%
    14:00 +27°C° 0.6 mm 3 mps 731 mmHg 72%
    15:00 +27°C° 0.6 mm 3 mps 731 mmHg 70%
    16:00 +27°C° 0.8 mm 3 mps 731 mmHg 73%
    17:00 +27°C° 0.8 mm 3 mps 731 mmHg 77%
    18:00 +26°C° 0.8 mm 3 mps 731 mmHg 80%
    19:00 +25°C° 0.7 mm 3 mps 731 mmHg 84%
    20:00 +24°C° 0.7 mm 2 mps 731 mmHg 88%
    21:00 +21°C° 0.7 mm 2 mps 731 mmHg 92%
    22:00 +21°C° 0.5 mm 2 mps 731 mmHg 93%
    23:00 +20°C° 0.5 mm 2 mps 731 mmHg 93%

    Tomorrow, 21 July, Saturday

    Time Temperature Precipitation Wind Pressure Humidity
    00:00 +20°C° 0.5 mm 2 mps 732 mmHg 94%
    01:00 +19°C° 0 mm 2 mps 732 mmHg 94%
    02:00 +19°C° 0 mm 2 mps 732 mmHg 94%
    03:00 +19°C° 0 mm 2 mps 732 mmHg 94%
    04:00 +19°C° 0.3 mm 2 mps 732 mmHg 95%
    05:00 +19°C° 0.3 mm 2 mps 732 mmHg 95%
    06:00 +20°C° 0.3 mm 2 mps 732 mmHg 96%
    07:00 +21°C° 0.4 mm 2 mps 732 mmHg 92%
    08:00 +23°C° 0.4 mm 2 mps 732 mmHg 89%
    09:00 +24°C° 0.4 mm 2 mps 732 mmHg 86%
    10:00 +25°C° 1.8 mm 2 mps 732 mmHg 82%
    11:00 +26°C° 1.8 mm 2 mps 732 mmHg 78%
    12:00 +27°C° 1.8 mm 2 mps 732 mmHg 74%
    13:00 +26°C° 1.4 mm 3 mps 732 mmHg 76%
    14:00 +26°C° 1.4 mm 3 mps 732 mmHg 79%
    15:00 +26°C° 1.4 mm 3 mps 732 mmHg 81%
    16:00 +26°C° 0.5 mm 3 mps 732 mmHg 82%
    17:00 +26°C° 0.5 mm 3 mps 732 mmHg 83%
    18:00 +26°C° 0.5 mm 3 mps 732 mmHg 84%
    19:00 +25°C° 0.4 mm 3 mps 732 mmHg 86%
    20:00 +24°C° 0.4 mm 3 mps 732 mmHg 89%
    21:00 +21°C° 0.4 mm 3 mps 732 mmHg 91%
    22:00 +21°C° 0.1 mm 3 mps 732 mmHg 93%
    23:00 +21°C° 0.1 mm 3 mps 732 mmHg 94%

    Day after tomorrow, 22 July, Sunday

    Time Temperature Precipitation Wind Pressure Humidity
    00:00 +20°C° 0.1 mm 3 mps 732 mmHg 96%
    01:00 +20°C° 0.3 mm 3 mps 732 mmHg 96%
    02:00 +20°C° 0.3 mm 3 mps 732 mmHg 97%
    03:00 +19°C° 0.3 mm 3 mps 732 mmHg 98%
    04:00 +20°C° 0.4 mm 3 mps 732 mmHg 97%
    05:00 +20°C° 0.4 mm 3 mps 732 mmHg 97%
    06:00 +20°C° 0.4 mm 3 mps 732 mmHg 97%
    07:00 +20°C° 0 mm 3 mps 732 mmHg 96%
    08:00 +21°C° 0 mm 3 mps 732 mmHg 95%
    09:00 +21°C° 0 mm 3 mps 732 mmHg 94%
    10:00 +22°C° 0.2 mm 3 mps 732 mmHg 93%
    11:00 +22°C° 0.2 mm 3 mps 732 mmHg 92%
    12:00 +22°C° 0.2 mm 3 mps 732 mmHg 91%
    13:00 +24°C° 0.2 mm 3 mps 732 mmHg 90%
    14:00 +23°C° 0.2 mm 4 mps 732 mmHg 88%
    15:00 +25°C° 0.2 mm 4 mps 732 mmHg 86%
    16:00 +25°C° 0.4 mm 4 mps 732 mmHg 86%
    17:00 +25°C° 0.4 mm 4 mps 732 mmHg 86%
    18:00 +25°C° 0.4 mm 4 mps 732 mmHg 86%
    19:00 +23°C° 0.5 mm 4 mps 732 mmHg 89%
    20:00 +22°C° 0.5 mm 4 mps 732 mmHg 92%
    21:00 +21°C° 0.5 mm 4 mps 732 mmHg 95%
    22:00 +21°C° 0.7 mm 4 mps 732 mmHg 96%
    23:00 +20°C° 0.7 mm 4 mps 732 mmHg 96%

    23 July, Monday

    Time Temperature Precipitation Wind Pressure Humidity
    00:00 +20°C° 0.7 mm 4 mps 732 mmHg 97%
    01:00 +20°C° 0.2 mm 4 mps 732 mmHg 97%
    02:00 +20°C° 0.2 mm 4 mps 732 mmHg 97%
    03:00 +20°C° 0.2 mm 4 mps 732 mmHg 97%
    04:00 +20°C° 0.2 mm 4 mps 732 mmHg 97%
    05:00 +20°C° 0.2 mm 4 mps 732 mmHg 97%
    06:00 +20°C° 0.2 mm 4 mps 732 mmHg 97%
    07:00 +21°C° 0.1 mm 4 mps 732 mmHg 95%
    08:00 +21°C° 0.1 mm 4 mps 732 mmHg 94%
    09:00 +21°C° 0.1 mm 3 mps 732 mmHg 93%
    10:00 +22°C° 0.2 mm 4 mps 732 mmHg 91%
    11:00 +23°C° 0.2 mm 4 mps 732 mmHg 89%
    12:00 +23°C° 0.2 mm 4 mps 732 mmHg 87%
    13:00 +25°C° 0.7 mm 3 mps 732 mmHg 86%
    14:00 +25°C° 0.7 mm 3 mps 732 mmHg 85%
    15:00 +25°C° 0.7 mm 3 mps 732 mmHg 84%
    16:00 +25°C° 0.5 mm 3 mps 733 mmHg 84%
    17:00 +25°C° 0.5 mm 3 mps 733 mmHg 85%
    18:00 +25°C° 0.5 mm 3 mps 733 mmHg 86%
    19:00 +24°C° 0.4 mm 3 mps 733 mmHg 89%
    20:00 +23°C° 0.4 mm 2 mps 733 mmHg 91%
    21:00 +21°C° 0.4 mm 2 mps 733 mmHg 94%
    22:00 +20°C° 0 mm 2 mps 733 mmHg 94%
    23:00 +20°C° 0 mm 2 mps 734 mmHg 95%

    24 July, Tuesday

    Time Temperature Precipitation Wind Pressure Humidity
    00:00 +19°C° 0 mm 2 mps 734 mmHg 95%
    01:00 +19°C° 0 mm 2 mps 734 mmHg 95%
    02:00 +19°C° 0 mm 2 mps 734 mmHg 95%
    03:00 +18°C° 0 mm 2 mps 734 mmHg 94%
    04:00 +18°C° 0 mm 2 mps 734 mmHg 94%
    05:00 +18°C° 0 mm 2 mps 735 mmHg 94%
    06:00 +18°C° 0 mm 2 mps 735 mmHg 94%
    07:00 +20°C° 0 mm 2 mps 735 mmHg 90%
    08:00 +21°C° 0 mm 2 mps 736 mmHg 86%
    09:00 +23°C° 0 mm 2 mps 736 mmHg 82%
    10:00 +24°C° 0 mm 2 mps 736 mmHg 78%
    11:00 +25°C° 0 mm 2 mps 736 mmHg 75%
    12:00 +26°C° 0 mm 2 mps 736 mmHg 71%
    13:00 +27°C° 0 mm 2 mps 736 mmHg 69%
    14:00 +27°C° 0 mm 2 mps 736 mmHg 66%
    15:00 +28°C° 0 mm 2 mps 736 mmHg 64%
    16:00 +28°C° 0.1 mm 2 mps 736 mmHg 67%
    17:00 +27°C° 0.1 mm 2 mps 737 mmHg 71%
    18:00 +27°C° 0.1 mm 2 mps 737 mmHg 74%
    19:00 +26°C° 0.1 mm 2 mps 737 mmHg 80%
    20:00 +24°C° 0.1 mm 2 mps 737 mmHg 85%
    21:00 +21°C° 0.1 mm 2 mps 737 mmHg 91%
    22:00 +21°C° 0.1 mm 2 mps 737 mmHg 92%
    23:00 +20°C° 0.1 mm 2 mps 737 mmHg 94%

    25 July, Wednesday

    Time Temperature Precipitation Wind Pressure Humidity
    00:00 +20°C° 0.1 mm 2 mps 738 mmHg 95%
    01:00 +20°C° 0.5 mm 3 mps 738 mmHg 95%
    02:00 +20°C° 0.5 mm 3 mps 738 mmHg 95%
    03:00 +19°C° 0.5 mm 3 mps 738 mmHg 96%
    04:00 +19°C° 0.2 mm 3 mps 738 mmHg 95%
    05:00 +19°C° 0.2 mm 3 mps 738 mmHg 94%
    06:00 +19°C° 0.2 mm 4 mps 739 mmHg 94%
    07:00 +20°C° 0.2 mm 3 mps 739 mmHg 92%
    08:00 +20°C° 0.2 mm 2 mps 739 mmHg 89%
    09:00 +20°C° 0.2 mm 2 mps 739 mmHg 87%
    10:00 +20°C° 0.3 mm 2 mps 739 mmHg 86%
    11:00 +21°C° 0.3 mm 3 mps 739 mmHg 86%
    12:00 +21°C° 0.3 mm 3 mps 739 mmHg 85%
    13:00 +21°C° 0.4 mm 4 mps 739 mmHg 84%
    14:00 +21°C° 0.4 mm 4 mps 739 mmHg 84%
    15:00 +20°C° 0.4 mm 4 mps 739 mmHg 84%
    16:00 +20°C° 0.2 mm 4 mps 738 mmHg 85%
    17:00 +19°C° 0.2 mm 4 mps 738 mmHg 85%
    18:00 +18°C° 0.2 mm 4 mps 738 mmHg 86%
    19:00 +19°C° 0.2 mm 4 mps 738 mmHg 88%
    20:00 +19°C° 0.2 mm 4 mps 738 mmHg 89%
    21:00 +19°C° 0.2 mm 4 mps 738 mmHg 90%
    22:00 +18°C° 0 mm 4 mps 738 mmHg 92%
    23:00 +18°C° 0 mm 4 mps 738 mmHg 94%
    Show more